Altus AFB, OK

2:56 AM CDT on April 25, 2017 (GMT -0500)
Altus Air Force Base

Weather History for KLTS - September, 2014

Change the Weather History Date:

Wednesday, September 17, 2014

  Actual Average Record
Temperature  
Mean Temperature 79 °F -  
Max Temperature 91 °F 84 °F 107 °F (2004)
Min Temperature 68 °F 61 °F 50 °F (2008)
Cooling Degree Days 14    
Growing Degree Days 29 (Base 50)    
Moisture  
Dew Point 69 °F    
Average Humidity 79    
Maximum Humidity 100    
Minimum Humidity 46    
Precipitation  
Precipitation 0.00 in - - ()
Sea Level Pressure  
Sea Level Pressure 29.93 in    
Wind  
Wind Speed 4 mph (SSW)    
Max Wind Speed 14 mph    
Max Gust Speed 20 mph    
Visibility 10 miles    
Events      
Averages and records for this station are not official NWS values.
T = Trace of Precipitation, MM = Missing Value Source: NWS Daily Summary

Daily Weather History Graph

Daily Weather History Graph

Search for Another Location

Airport or City:

Trip Planner

Search our weather history database for the weather conditions in past years. The results will help you decide how hot, cold, wet, or windy it might be!

Date:

Astronomy

Sep. 17, 2014 Rise Set
Actual Time 7:21 AM CDT 7:40 PM CDT
Civil Twilight 6:56 AM CDT 8:06 PM CDT
Nautical Twilight 6:26 AM CDT 8:35 PM CDT
Astronomical Twilight 5:56 AM CDT 9:05 PM CDT
Moon 1:33 AM CDT (9/17) 3:42 PM CDT (9/17)
Length of Visible Light 13h 09m
Length of Day
12h 19m
Waning Crescent, 34% of the Moon is Illuminated
Sep 17
Waning Crescent
Sep 24
New
Oct 1
First Quarter
Oct 8
Full
Oct 15
Last Quarter

Hourly Weather History & Observations

Time (CDT) Temp. Heat Index Dew Point Humidity Pressure Visibility Wind Dir Wind Speed Gust Speed Precip Events Conditions
12:58 AM 73.2 °F - 69.1 °F 87% 29.98 in 10.0 mi SSE 8.1 mph - N/A   Clear
1:58 AM 72.0 °F - 69.4 °F 92% 29.97 in 10.0 mi SE 3.5 mph - N/A   Clear
2:43 AM 69.8 °F - 69.8 °F 100% 30.00 in 9.0 mi SE 2.3 mph - N/A   Clear
2:53 AM 69.8 °F - 69.8 °F 100% 30.00 in 10.0 mi Calm Calm - N/A   Clear
2:58 AM 70.5 °F - 70.2 °F 99% 29.96 in 10.0 mi Calm Calm - N/A   Clear
3:38 AM 69.8 °F - 69.8 °F 100% 29.99 in 9.0 mi ESE 1.2 mph - N/A   Clear
3:48 AM 69.8 °F - 69.8 °F 100% 29.99 in 6.0 mi Calm Calm - N/A   Clear
3:53 AM 71.6 °F - 68.0 °F 88% 29.99 in 7.0 mi Calm Calm - N/A   Clear
3:58 AM 71.1 °F - 68.5 °F 92% 29.95 in 9.0 mi SW 1.2 mph - N/A   Clear
4:18 AM 69.8 °F - 68.0 °F 94% 29.98 in 10.0 mi SSW 2.3 mph - N/A   Clear
4:23 AM 69.8 °F - 69.8 °F 100% 29.98 in 9.0 mi SSW 2.3 mph - N/A   Clear
4:33 AM 71.6 °F - 69.8 °F 94% 29.98 in 10.0 mi Calm Calm - N/A   Clear
4:43 AM 71.6 °F - 69.8 °F 94% 29.98 in 9.0 mi Calm Calm - N/A   Clear
4:48 AM 71.6 °F - 69.8 °F 94% 29.97 in 10.0 mi Calm Calm - N/A   Clear
4:58 AM 71.6 °F - 68.7 °F 91% 29.93 in 10.0 mi SSW 2.3 mph - N/A   Clear
5:38 AM 68.0 °F - 68.0 °F 100% 29.97 in 9.0 mi Calm Calm - N/A   Clear
5:48 AM 69.8 °F - 69.8 °F 100% 29.97 in 10.0 mi Calm Calm - N/A   Clear
5:58 AM 70.5 °F - 69.4 °F 96% 29.93 in 10.0 mi Calm Calm - N/A   Clear
6:58 AM 72.1 °F - 69.1 °F 90% 29.94 in 10.0 mi Calm Calm - N/A   Clear
7:58 AM 72.9 °F - 69.3 °F 88% 29.95 in 10.0 mi West 3.5 mph - N/A   Clear
8:58 AM 76.3 °F - 69.6 °F 80% 29.95 in 10.0 mi WSW 6.9 mph - N/A   Clear
9:58 AM 79.3 °F - 68.9 °F 70% 29.95 in 10.0 mi SW 5.8 mph - N/A   Clear
10:58 AM 84.0 °F 87.6 °F 68.7 °F 60% 29.95 in 10.0 mi WSW 9.2 mph - N/A   Clear
11:58 AM 88.5 °F 92.3 °F 68.2 °F 51% 29.92 in 10.0 mi SW 10.4 mph - N/A   Clear
12:58 PM 90.7 °F 94.5 °F 68.0 °F 47% 29.90 in 10.0 mi SW 13.8 mph 19.6 mph N/A   Clear
1:58 PM 90.9 °F 94.4 °F 67.3 °F 46% 29.88 in 10.0 mi SW 12.7 mph - N/A   Clear
2:58 PM 90.1 °F 94.0 °F 67.8 °F 48% 29.87 in 10.0 mi SW 10.4 mph - N/A   Clear
3:58 PM 90.0 °F 92.8 °F 66.7 °F 46% 29.85 in 10.0 mi WSW 12.7 mph - N/A   Scattered Clouds
4:58 PM 88.5 °F 91.6 °F 67.1 °F 49% 29.83 in 10.0 mi WSW 10.4 mph - N/A   Mostly Cloudy
5:58 PM 87.8 °F 91.4 °F 68.0 °F 52% 29.83 in 10.0 mi SW 10.4 mph - N/A   Scattered Clouds
6:58 PM 86.2 °F 89.7 °F 68.2 °F 55% 29.83 in 10.0 mi SSW 6.9 mph - N/A   Scattered Clouds
7:58 PM 82.2 °F 85.1 °F 68.2 °F 62% 29.84 in 10.0 mi SSW 5.8 mph - N/A   Mostly Cloudy
8:58 PM 79.5 °F - 68.4 °F 69% 29.85 in 10.0 mi South 6.9 mph - N/A   Mostly Cloudy
9:58 PM 78.8 °F - 68.5 °F 71% 29.87 in 10.0 mi SW 4.6 mph - N/A   Mostly Cloudy
10:58 PM 78.8 °F - 69.1 °F 72% 29.86 in 10.0 mi South 8.1 mph - N/A   Clear
11:58 PM 77.7 °F - 69.1 °F 75% 29.86 in 10.0 mi SSW 5.8 mph - N/A   Clear